Claremore, OK

9:03 AM CDT on August 30, 2016 (GMT -0500)
Claremore Regional

Weather History for KGCM - September, 2013

Change the Weather History Date:

Saturday, September 14, 2013

  Actual Average (KTUL) Record (KTUL)
Temperature  
Mean Temperature 70 °F 69 °F  
Max Temperature 86 °F 81 °F 98 °F (1980)
Min Temperature 55 °F 57 °F 44 °F (1959)
Degree Days  
Heating Degree Days 0 1  
Month to date heating degree days 4  
Since 1 July heating degree days 5  
Cooling Degree Days 6 5  
Month to date cooling degree days 101  
Year to date cooling degree days 1226  
Growing Degree Days 20 (Base 50)    
Moisture  
Dew Point 54 °F    
Average Humidity 60    
Maximum Humidity 88    
Minimum Humidity 33    
Precipitation  
Precipitation 0.00 in 0.16 in 2.15 in (1957)
Month to date precipitation 2.04  
Year to date precipitation 33.93  
Sea Level Pressure  
Sea Level Pressure 30.04 in    
Wind  
Wind Speed 6 mph (ESE)    
Max Wind Speed 12 mph    
Max Gust Speed 17 mph    
Visibility 10 miles    
Events      
T = Trace of Precipitation, MM = Missing Value Source: NWS Daily Summary

Daily Weather History Graph

Daily Weather History Graph

Search for Another Location

Airport or City:

Trip Planner

Search our weather history database for the weather conditions in past years. The results will help you decide how hot, cold, wet, or windy it might be!

Date:

Astronomy

Sep. 14, 2013 Rise Set
Actual Time 7:03 AM CDT 7:30 PM CDT
Civil Twilight 6:37 AM CDT 7:56 PM CDT
Nautical Twilight 6:07 AM CDT 8:26 PM CDT
Astronomical Twilight 5:36 AM CDT 8:57 PM CDT
Moon 4:06 PM CDT (9/14) 1:43 AM CDT (9/14)
Length of Visible Light 13h 18m
Length of Day
12h 26m
Waxing Gibbous, 72% of the Moon is Illuminated
Sep 14
Waxing Gibbous
Sep 19
Full
Sep 26
Last Quarter
Oct 4
New
Oct 11
First Quarter

Hourly Weather History & Observations

Time (CDT) Temp. Heat Index Dew Point Humidity Pressure Visibility Wind Dir Wind Speed Gust Speed Precip Events Conditions
12:15 AM 62.6 °F - 51.8 °F 68% 30.06 in 10.0 mi ENE 5.8 mph - N/A   Clear
12:35 AM 62.6 °F - 51.8 °F 68% 30.06 in 10.0 mi ENE 6.9 mph - N/A   Clear
12:55 AM 62.6 °F - 51.8 °F 68% 30.05 in 10.0 mi ENE 6.9 mph - N/A   Clear
1:15 AM 62.6 °F - 51.8 °F 68% 30.06 in 10.0 mi ENE 5.8 mph - N/A   Clear
1:35 AM 59.0 °F - 51.8 °F 77% 30.06 in 10.0 mi East 5.8 mph - N/A   Clear
1:55 AM 60.8 °F - 51.8 °F 72% 30.05 in 10.0 mi ENE 6.9 mph - N/A   Clear
2:15 AM 60.8 °F - 51.8 °F 72% 30.05 in 10.0 mi ENE 6.9 mph - N/A   Clear
2:35 AM 60.8 °F - 51.8 °F 72% 30.05 in 10.0 mi ENE 6.9 mph - N/A   Clear
2:55 AM 60.8 °F - 51.8 °F 72% 30.06 in 10.0 mi ENE 6.9 mph - N/A   Clear
3:15 AM 59.0 °F - 50.0 °F 72% 30.05 in 10.0 mi ENE 4.6 mph - N/A   Clear
3:35 AM 59.0 °F - 50.0 °F 72% 30.04 in 10.0 mi ENE 5.8 mph - N/A   Clear
3:55 AM 59.0 °F - 51.8 °F 77% 30.04 in 10.0 mi ENE 4.6 mph - N/A   Clear
4:15 AM 57.2 °F - 50.0 °F 77% 30.04 in 10.0 mi ENE 4.6 mph - N/A   Clear
4:35 AM 59.0 °F - 51.8 °F 77% 30.05 in 10.0 mi NE 4.6 mph - N/A   Clear
4:55 AM 59.0 °F - 51.8 °F 77% 30.05 in 10.0 mi ENE 5.8 mph - N/A   Clear
5:15 AM 59.0 °F - 51.8 °F 77% 30.06 in 10.0 mi ENE 6.9 mph - N/A   Clear
5:35 AM 57.2 °F - 51.8 °F 82% 30.06 in 10.0 mi ENE 5.8 mph - N/A   Clear
5:55 AM 57.2 °F - 51.8 °F 82% 30.06 in 10.0 mi ENE 4.6 mph - N/A   Clear
6:15 AM 57.2 °F - 51.8 °F 82% 30.06 in 10.0 mi ENE 4.6 mph - N/A   Clear
6:35 AM 55.4 °F - 51.8 °F 88% 30.07 in 10.0 mi NE 5.8 mph - N/A   Clear
6:55 AM 55.4 °F - 51.8 °F 88% 30.06 in 10.0 mi ENE 5.8 mph - N/A   Clear
7:15 AM 55.4 °F - 51.8 °F 88% 30.07 in 10.0 mi ENE 5.8 mph - N/A   Clear
7:35 AM 55.4 °F - 51.8 °F 88% 30.07 in 10.0 mi ENE 3.5 mph - N/A   Clear
7:55 AM 59.0 °F - 53.6 °F 82% 30.08 in 10.0 mi ENE 4.6 mph - N/A   Clear
8:15 AM 60.8 °F - 53.6 °F 77% 30.08 in 10.0 mi East 4.6 mph - N/A   Clear
8:35 AM 64.4 °F - 53.6 °F 68% 30.09 in 10.0 mi East 4.6 mph - N/A   Clear
8:55 AM 66.2 °F - 53.6 °F 64% 30.09 in 10.0 mi ESE 6.9 mph - N/A   Clear
9:15 AM 68.0 °F - 53.6 °F 60% 30.09 in 10.0 mi ESE 8.1 mph - N/A   Clear
9:35 AM 68.0 °F - 51.8 °F 56% 30.10 in 10.0 mi SSE 6.9 mph - N/A   Clear
9:55 AM 68.0 °F - 53.6 °F 60% 30.10 in 10.0 mi ESE 6.9 mph - N/A   Clear
10:15 AM 69.8 °F - 53.6 °F 56% 30.10 in 10.0 mi SE 6.9 mph - N/A   Clear
10:35 AM 71.6 °F - 53.6 °F 53% 30.11 in 10.0 mi SSE 5.8 mph - N/A   Clear
10:55 AM 73.4 °F - 53.6 °F 50% 30.10 in 10.0 mi SSE 9.2 mph - N/A   Clear
11:15 AM 73.4 °F - 53.6 °F 50% 30.10 in 10.0 mi SSE 8.1 mph - N/A   Clear
11:35 AM 75.2 °F - 53.6 °F 47% 30.10 in 10.0 mi SE 6.9 mph - N/A   Clear
11:55 AM 77.0 °F - 53.6 °F 44% 30.09 in 10.0 mi SE 4.6 mph - N/A   Clear
12:15 PM 78.8 °F - 53.6 °F 42% 30.09 in 10.0 mi SSE 9.2 mph - N/A   Clear
12:35 PM 78.8 °F - 53.6 °F 42% 30.08 in 10.0 mi ESE 5.8 mph - N/A   Clear
12:55 PM 78.8 °F - 53.6 °F 42% 30.08 in 10.0 mi ESE 8.1 mph - N/A   Clear
1:15 PM 80.6 °F 80.3 °F 53.6 °F 39% 30.07 in 10.0 mi ESE 4.6 mph - N/A   Clear
1:35 PM 80.6 °F 80.3 °F 53.6 °F 39% 30.06 in 10.0 mi SSE 6.9 mph - N/A   Clear
1:55 PM 82.4 °F 81.4 °F 53.6 °F 37% 30.05 in 10.0 mi ESE 9.2 mph - N/A   Clear
2:15 PM 80.6 °F 80.3 °F 53.6 °F 39% 30.04 in 10.0 mi ESE 11.5 mph - N/A   Clear
2:35 PM 82.4 °F 81.4 °F 53.6 °F 37% 30.03 in 10.0 mi ESE 6.9 mph - N/A   Clear
2:55 PM 82.4 °F 81.4 °F 53.6 °F 37% 30.03 in 10.0 mi ESE 5.8 mph - N/A   Clear
3:15 PM 82.4 °F 81.4 °F 53.6 °F 37% 30.02 in 10.0 mi ESE 4.6 mph - N/A   Clear
3:35 PM 84.2 °F 82.8 °F 53.6 °F 35% 30.01 in 10.0 mi ESE 5.8 mph - N/A   Clear
3:55 PM 86.0 °F 84.2 °F 53.6 °F 33% 30.00 in 10.0 mi ESE 10.4 mph 17.3 mph N/A   Clear
4:15 PM 82.4 °F 81.7 °F 55.4 °F 39% 30.00 in 10.0 mi ESE 6.9 mph - N/A   Clear
4:35 PM 82.4 °F 81.7 °F 55.4 °F 39% 30.00 in 10.0 mi ESE 4.6 mph - N/A   Clear
4:55 PM 82.4 °F 81.7 °F 55.4 °F 39% 29.99 in 10.0 mi SE 8.1 mph - N/A   Clear
5:15 PM 84.2 °F 83.0 °F 55.4 °F 37% 29.99 in 10.0 mi ESE 5.8 mph - N/A   Clear
5:35 PM 84.2 °F 83.0 °F 55.4 °F 37% 29.99 in 10.0 mi ESE 5.8 mph - N/A   Clear
5:55 PM 84.2 °F 83.0 °F 55.4 °F 37% 29.99 in 10.0 mi ESE 6.9 mph - N/A   Clear
6:15 PM 82.4 °F 81.7 °F 55.4 °F 39% 29.99 in 10.0 mi SE 3.5 mph - N/A   Clear
6:35 PM 80.6 °F 80.5 °F 55.4 °F 42% 29.98 in 10.0 mi SE 8.1 mph - N/A   Clear
6:55 PM 80.6 °F 80.8 °F 57.2 °F 45% 29.98 in 10.0 mi ESE 5.8 mph - N/A   Clear
7:15 PM 78.8 °F - 57.2 °F 47% 29.98 in 10.0 mi ESE 5.8 mph - N/A   Clear
7:35 PM 77.0 °F - 59.0 °F 54% 29.99 in 10.0 mi ESE 3.5 mph - N/A   Clear
7:55 PM 75.2 °F - 59.0 °F 57% 29.99 in 10.0 mi ESE 4.6 mph - N/A   Clear
8:15 PM 73.4 °F - 59.0 °F 61% 29.99 in 10.0 mi SE 3.5 mph - N/A   Clear
8:35 PM 69.8 °F - 59.0 °F 68% 29.99 in 10.0 mi SE 4.6 mph - N/A   Clear
8:55 PM 71.6 °F - 59.0 °F 64% 30.00 in 10.0 mi South 5.8 mph - N/A   Clear
9:15 PM 69.8 °F - 59.0 °F 68% 30.00 in 10.0 mi SSE 6.9 mph - N/A   Clear
9:35 PM 69.8 °F - 59.0 °F 68% 30.00 in 10.0 mi SSE 4.6 mph - N/A   Clear
9:55 PM 69.8 °F - 59.0 °F 68% 30.00 in 10.0 mi SE 5.8 mph - N/A   Clear
10:15 PM 69.8 °F - 59.0 °F 68% 30.00 in 10.0 mi SE 5.8 mph - N/A   Clear
10:35 PM 69.8 °F - 57.2 °F 64% 30.01 in 10.0 mi SE 6.9 mph - N/A   Clear
10:55 PM 68.0 °F - 57.2 °F 68% 30.01 in 10.0 mi SE 5.8 mph - N/A   Clear
11:15 PM 68.0 °F - 55.4 °F 64% 30.01 in 10.0 mi SE 6.9 mph - N/A   Clear
11:35 PM 68.0 °F - 55.4 °F 64% 30.01 in 10.0 mi SE 8.1 mph - N/A   Clear
11:55 PM 68.0 °F - 53.6 °F 60% 30.01 in 10.0 mi SE 6.9 mph - N/A   Clear